Flag for Germany Weather past 2 weeks in Lippstadt, North Rhine-Westphalia, Germany

Now
61 °F

Scattered clouds.


Feels Like: 61 °F
Forecast: 48 / 55 °F
Wind: 17 mph from East

Location: Paderborn / Lippstadt


UV Index: 0 (Low)

Visibility: N/A


Pressure: 29.80 "Hg

Humidity: 55%

Dew point: 45 °F

Location of LippstadtLocation

Historic Weather in Lippstadt

°F

Lippstadt temperature yesterday

Maximum temperature yesterday: 57 °F (at 5:20 PM)
Minimum temperature yesterday: 32 °F (at 6:20 AM)
Average temperature yesterday: 48 °F

Past Weeks' High & Low Weather Summary

 TemperatureHumidityPressure
High68 °F (Apr 7, 4:50 PM)100% (Apr 5, 12:20 PM)30.45 "Hg (Apr 5, 12:20 PM)
Low28 °F (Apr 16, 4:50 AM)29% (Apr 17, 5:50 PM)29.77 "Hg (Apr 8, 5:50 AM)
Average49 °F71%30.08 "Hg
* Reported Apr 5 12:20 PM — Apr 20 12:20 PM, Lippstadt, Weather by CustomWeather, © 2014

Note: Actual official high and low records may vary slightly from our data, if they occured in-between our weather recording intervals... More about our weather records

Advertising

Historic Weather Conditions — Data for Previous 24 hours

 ConditionsComfort  
Time TempWeatherWind HumidityBarometerVisibility
12:20 PM
Apr 20
61 °FScattered clouds.17 mph55%29.80 "HgN/A
11:50 AM61 °FSunny.18 mph55%29.80 "Hg10 mi
11:20 AM61 °FSunny.18 mph55%29.80 "Hg10 mi
10:50 AM59 °FSunny.18 mph59%29.80 "Hg10 mi
10:20 AM59 °FSunny.17 mph59%29.80 "Hg10 mi
9:50 AM57 °FSunny.10 mph67%29.83 "Hg10 mi
9:20 AM55 °FSunny.8 mph77%29.83 "Hg10 mi
8:50 AM54 °FSunny.6 mph82%29.83 "Hg10 mi
8:20 AM50 °FSunny.2 mph100%29.83 "Hg10 mi
7:50 AM46 °FSunny.1 mph100%29.83 "Hg10 mi
7:20 AM45 °FSunny.2 mph100%29.83 "Hg10 mi
6:50 AM45 °FPassing clouds.3 mph100%29.83 "HgN/A
6:20 AM46 °FClear.3 mph100%29.83 "Hg10 mi
5:50 AM48 °FPassing clouds.3 mph94%29.83 "HgN/A
4:50 AM46 °FClear.5 mph100%29.86 "Hg6 mi
4:20 AM46 °FClear.2 mph100%29.86 "Hg10 mi
12:20 AM48 °FPassing clouds.3 mph94%29.92 "HgN/A
11:50 PM
Apr 19
46 °FClear.3 mph93%29.92 "Hg10 mi
11:20 PM48 °FClear.2 mph87%29.95 "Hg10 mi
10:50 PM50 °FClear.2 mph88%29.95 "Hg10 mi
10:20 PM50 °FPassing clouds.3 mph82%29.95 "HgN/A
9:50 PM50 °FPassing clouds.5 mph82%29.95 "HgN/A
9:20 PM52 °FPassing clouds.6 mph77%29.95 "HgN/A
8:50 PM50 °FPassing clouds.8 mph82%29.98 "HgN/A
8:20 PM55 °FPassing clouds.12 mph67%29.98 "HgN/A
7:50 PM55 °FPassing clouds.14 mph67%29.98 "HgN/A
7:20 PM57 °FSunny.15 mph59%29.95 "Hg10 mi
6:50 PM57 °FSunny.17 mph59%29.98 "Hg10 mi
6:20 PM57 °FSunny.16 mph63%29.98 "Hg10 mi
5:50 PM57 °FSunny.14 mph59%29.98 "Hg10 mi
5:20 PM57 °FPassing clouds.13 mph59%29.98 "HgN/A
4:50 PM55 °FPassing clouds.12 mph59%29.98 "HgN/A
4:20 PM55 °FPassing clouds.10 mph55%29.98 "HgN/A
3:50 PM55 °FPassing clouds.9 mph59%30.01 "HgN/A
3:20 PM55 °FPassing clouds.12 mph55%30.01 "HgN/A
2:50 PM55 °FPassing clouds.12 mph59%30.04 "HgN/A
2:20 PM54 °FPassing clouds.9 mph58%30.04 "HgN/A
1:50 PM55 °FPassing clouds.12 mph55%30.04 "HgN/A
1:20 PM52 °FPassing clouds.13 mph58%30.07 "HgN/A
Weather by CustomWeather, © 2014

See weather overview